Humidity-temperature Sensor

Selected Measurement Type: Air Temperature

 
Air Temperature [°C]     6 entries per hour
Showing data from 8/31/2018 (00:00:00 Z) to 8/30/2018 (00:01:00 Z)
Previous Next [ Day | 3-Days | 7-Days ]
First Last
Prev [ Day | 3-Days | 7-Days ] Next
First Last

Start Time:     :
End Time:     :     
Time (in GMT) :00 :50 :40 :30 :20 :10
Previous Next [ Day | 3-Days | 7-Days ]
First Last
Prev [ Day | 3-Days | 7-Days ] Next
First Last


123 => good data
MM => data is determined as missing
-- => data not received/configured
Back to Top Back to Top
8/31/2018 00:00 to 23:10 22.38 22.74 22.79 23.04 22.82 22.94
8/30/2018 23:00 to 22:10 23.12 23.16 23.25 23.24 23.17 23.23
8/30/2018 22:00 to 21:10 23.09 23.07 23.08 23.10 23.00 23.08
8/30/2018 21:00 to 20:10 22.99 23.02 23.00 22.97 22.95 22.93
8/30/2018 20:00 to 19:10 22.97 22.99 22.94 22.98 22.93 22.98
8/30/2018 19:00 to 18:10 23.05 23.10 23.00 23.10 23.24 23.24
8/30/2018 18:00 to 17:10 23.33 23.22 23.15 23.03 22.90 22.88
8/30/2018 17:00 to 16:10 22.84 22.90 22.82 22.80 22.71 22.68
8/30/2018 16:00 to 15:10 22.65 22.99 23.27 23.19 23.09 23.05
8/30/2018 15:00 to 14:10 23.20 22.97 22.76 22.87 22.70 22.77
8/30/2018 14:00 to 13:10 22.78 22.69 22.82 22.98 23.13 22.81
8/30/2018 13:00 to 12:10 23.28 23.18 23.03 23.11 23.12 22.98
8/30/2018 12:00 to 11:10 22.96 22.95 22.99 22.98 23.03 22.58
8/30/2018 11:00 to 10:10 22.80 22.76 22.87 22.62 22.57 22.06
8/30/2018 10:00 to 9:10 22.12 21.91 21.93 21.83 21.94 21.81
8/30/2018 09:00 to 8:10 21.48 21.66 21.91 22.05 22.06 22.37
8/30/2018 08:00 to 7:10 22.37 22.31 22.54 22.55 22.51 22.72
8/30/2018 07:00 to 6:10 22.74 22.86 22.47 22.15 22.51 22.75
8/30/2018 06:00 to 5:10 23.17 23.19 23.11 22.97 23.09 22.99
8/30/2018 05:00 to 4:10 23.02 23.03 23.18 22.86 22.87 22.74
8/30/2018 04:00 to 3:10 22.81 22.81 22.78 22.63 22.64 22.81
8/30/2018 03:00 to 2:10 22.45 22.39 22.41 22.48 21.99 22.42
8/30/2018 02:00 to 1:10 22.40 22.23 22.35 22.28 22.12 22.53
8/30/2018 01:00 to 0:10 22.66 22.59 22.75 22.86 22.68 22.66